Location: Bittelbronn
(48.4454°N, 8.5870°E)
Time: 13:30:46
(UTC+00:00)

SJ 16-02 - Pass Details

Date: 25 April 2025
Orbit: 587 x 597 km, 75.0° (Epoch: 15 May)

Event Time Altitude Azimuth Distance (km) Brightness Sun altitude
Rises 20:39:26 0° 319° (NW) 2,849 6.5 -18.2°
Reaches altitude 10° 20:43:11 10° 285° (WNW) 1,941 4.7 -18.6°
Maximum altitude 20:44:32 11° 267° (W) 1,852 4.3 -18.7°
Drops below altitude 10° 20:45:53 10° 249° (WSW) 1,936 4.1 -18.9°
Sets 20:49:37 0° 215° (SW) 2,831 4.6 -19.3°
Enters shadow 20:49:39 - 215° (SW) 2,842 4.6 -19.3°
